Amsterdam, Netherlands

2:20 AM CET on December 08, 2019 (GMT +0100)
Schiphol

Weather History for EHAM - October, 2019

Change the Weather History Date:

Saturday, October 5, 2019

  Actual Average Record
Temperature  
Mean Temperature 48 °F -  
Max Temperature 57 °F 55 °F 68 °F (2018)
Min Temperature 38 °F 44 °F 42 °F (2003)
Degree Days  
Heating Degree Days 18    
Moisture  
Dew Point 45 °F    
Average Humidity 85    
Maximum Humidity 100    
Minimum Humidity 57    
Precipitation  
Precipitation 0.00 in - - ()
Sea Level Pressure  
Sea Level Pressure 29.97 in    
Wind  
Wind Speed 5 mph ()    
Max Wind Speed 10 mph    
Max Gust Speed -    
Visibility 5.9 miles    
Events Fog    
Averages and records for this station are not official NWS values.
T = Trace of Precipitation, MM = Missing Value Source: Averaged Metar Reports

Daily Weather History Graph

Daily Weather History Graph

Search for Another Location

Airport or City:

Astronomy

Oct. 05, 2019 Rise Set
Actual Time 7:48 AM CEST 7:09 PM CEST
Civil Twilight 7:14 AM CEST 7:43 PM CEST
Nautical Twilight 6:34 AM CEST 8:22 PM CEST
Astronomical Twilight 5:54 AM CEST 9:03 PM CEST
Moon 3:44 PM CEST (10/5) 11:34 PM CEST (10/5)
Length of Visible Light 12h 29m
Length of Day
11h 21m
Waxing Crescent, 47% of the Moon is Illuminated
Oct 5
Waxing Crescent
Oct 5
First Quarter
Oct 13
Full
Oct 21
Last Quarter
Oct 28
New

Hourly Weather History & Observations

Time (CEST) Temp. Windchill Dew Point Humidity Pressure Visibility Wind Dir Wind Speed Gust Speed Precip Events Conditions
12:00 AM 48 °F - 46 °F 90% 29.79 in 9 mi North 4.5 mph - -   Partly Cloudy
12:25 AM 48.2 °F - 46.4 °F 93% 29.77 in 6.2 mi North 5.8 mph - N/A   Partly Cloudy
12:55 AM 46.4 °F 44.3 °F 44.6 °F 93% 29.80 in 6.2 mi North 4.6 mph - N/A   Partly Cloudy
1:00 AM 47 °F - 45 °F 90% 29.81 in 7 mi NNE 4.5 mph - -   Partly Cloudy
1:25 AM 46.4 °F 44.3 °F 44.6 °F 93% 29.80 in 6.2 mi North 4.6 mph - N/A   Partly Cloudy
1:55 AM 44.6 °F 42.2 °F 44.6 °F 100% 29.83 in 6.2 mi North 4.6 mph - N/A   Partly Cloudy
2:00 AM 45 °F - 44 °F 97% 29.84 in 6 mi North 4.5 mph - -   Partly Cloudy
2:25 AM 44.6 °F 43.1 °F 42.8 °F 93% 29.83 in 5.0 mi North 3.5 mph - N/A   Partly Cloudy
2:55 AM 44.6 °F 43.1 °F 44.6 °F 100% 29.83 in 5.0 mi NNE 3.5 mph - N/A   Partly Cloudy
3:00 AM 45 °F - 44 °F 96% 29.85 in 3 mi North 2.2 mph - -   Mist
3:25 AM 44.6 °F - 44.6 °F 100% 29.83 in 4.3 mi Variable 2.3 mph - N/A   Partly Cloudy
3:55 AM 42.8 °F - 42.8 °F 100% 29.86 in 3.7 mi Variable 1.2 mph - N/A Fog Fog
4:00 AM 44 °F - 44 °F 99% 29.88 in 0 mi NW 2.2 mph - - Fog Fog
4:25 AM 42.8 °F - 42.8 °F 100% 29.86 in 3.7 mi NNW 2.3 mph - N/A Fog Fog
4:55 AM 42.8 °F 41.1 °F 42.8 °F 100% 29.89 in 3.1 mi WNW 3.5 mph - N/A Fog Partly Cloudy
5:00 AM 41 °F - 40 °F 96% 29.91 in 0 mi WNW 4.5 mph - - Fog Fog
5:25 AM 41.0 °F - 41.0 °F 100% 29.89 in 3.1 mi Variable 2.3 mph - N/A Fog Partly Cloudy
5:55 AM 41.0 °F - 41.0 °F 100% 29.92 in 2.5 mi NNE 1.2 mph - N/A Fog Partly Cloudy
6:00 AM 41 °F - 41 °F 100% 29.92 in 0 mi Calm Calm - - Fog Fog
6:25 AM 41.0 °F - 41.0 °F 100% 29.92 in 2.2 mi ENE 2.3 mph - N/A Fog Partly Cloudy
6:55 AM 39.2 °F 35.0 °F 39.2 °F 100% 29.92 in 3.7 mi East 5.8 mph - N/A Fog Fog
7:00 AM 41 °F - 40 °F 97% 29.93 in 9 mi ENE 4.5 mph - - Fog Fog
7:25 AM 42.8 °F 38.6 °F 42.8 °F 100% 29.92 in 6.2 mi ENE 6.9 mph - N/A Fog Shallow Fog
7:55 AM 44.6 °F 43.1 °F 42.8 °F 93% 29.95 in 6.2 mi East 3.5 mph - N/A   Partly Cloudy
8:25 AM 44.6 °F 40.7 °F 42.8 °F 93% 29.95 in 6.2 mi East 6.9 mph - N/A   Scattered Clouds
8:55 AM 46.4 °F 43.5 °F 44.6 °F 93% 29.95 in 5.6 mi East 5.8 mph - N/A   Mostly Cloudy
9:00 AM 46 °F - 44 °F 91% 29.98 in 4 mi East 4.5 mph - -   Mist
9:25 AM 46.4 °F 42.4 °F 44.6 °F 93% 29.98 in 6.2 mi ESE 8.1 mph - N/A   Scattered Clouds
9:55 AM 48.2 °F - 46.4 °F 93% 29.98 in 6.2 mi ESE 3.5 mph - N/A   Partly Cloudy
10:00 AM 47 °F - 45 °F 91% 30.01 in 6 mi SE 4.5 mph - -   Mist
10:25 AM 48.2 °F - 44.6 °F 87% 30.01 in 6.2 mi ESE 6.9 mph - N/A   Partly Cloudy
10:55 AM 51.8 °F - 48.2 °F 88% 30.01 in 6.2 mi East 5.8 mph - N/A   Partly Cloudy
11:00 AM 51 °F - 46 °F 78% 30.03 in 13 mi East 4.5 mph - -   Partly Cloudy
11:25 AM 51.8 °F - 46.4 °F 82% 30.01 in 6.2 mi East 6.9 mph - N/A   Partly Cloudy
11:55 AM 51.8 °F - 44.6 °F 76% 30.01 in 6.2 mi East 8.1 mph - N/A   Partly Cloudy
12:25 PM 53.6 °F - 46.4 °F 77% 30.01 in 6.2 mi East 8.1 mph - N/A   Partly Cloudy
12:55 PM 53.6 °F - 46.4 °F 77% 30.04 in 6.2 mi East 6.9 mph - N/A   Partly Cloudy
1:25 PM 53.6 °F - 46.4 °F 77% 30.04 in 6.2 mi ENE 8.1 mph - N/A   Partly Cloudy
1:55 PM 53.6 °F - 44.6 °F 72% 30.04 in 6.2 mi East 8.1 mph - N/A   Partly Cloudy
2:00 PM 54 °F - 46 °F 66% 30.04 in 25 mi East 8.9 mph - -   Partly Cloudy
2:25 PM 55.4 °F - 46.4 °F 72% 30.04 in 6.2 mi East 5.8 mph - N/A   Partly Cloudy
2:55 PM 57.2 °F - 44.6 °F 63% 30.04 in 6.2 mi ESE 9.2 mph - N/A   Partly Cloudy
3:00 PM 56 °F - 46 °F 60% 30.04 in 25 mi ESE 8.9 mph - -   Partly Cloudy
3:25 PM 57.2 °F - 46.4 °F 67% 30.04 in 6.2 mi SE 5.8 mph - N/A   Scattered Clouds
3:55 PM 57.2 °F - 46.4 °F 67% 30.04 in 6.2 mi NE 9.2 mph - N/A   Partly Cloudy
4:00 PM 57 °F - 47 °F 59% 30.05 in 25 mi ENE 8.9 mph - -   Partly Cloudy
4:25 PM 55.4 °F - 46.4 °F 72% 30.04 in 6.2 mi East 8.1 mph - N/A   Partly Cloudy
4:55 PM 57.2 °F - 46.4 °F 67% 30.04 in 6.2 mi ESE 6.9 mph - N/A   Partly Cloudy
5:00 PM 56 °F - 45 °F 57% 30.04 in 25 mi ESE 6.7 mph - -   Partly Cloudy
5:25 PM 55.4 °F - 44.6 °F 67% 30.04 in 6.2 mi ESE 6.9 mph - N/A   Partly Cloudy
5:55 PM 55.4 °F - 46.4 °F 72% 30.04 in 6.2 mi ESE 5.8 mph - N/A   Partly Cloudy
6:00 PM 55 °F - 45 °F 60% 30.06 in 28 mi SE 6.7 mph - -   Partly Cloudy
6:25 PM 53.6 °F - 44.6 °F 72% 30.04 in 6.2 mi ESE 6.9 mph - N/A   Partly Cloudy
6:55 PM 51.8 °F - 44.6 °F 76% 30.04 in 6.2 mi ESE 6.9 mph - N/A   Partly Cloudy
7:25 PM 51.8 °F - 44.6 °F 76% 30.06 in 6.2 mi ESE 5.8 mph - N/A   Partly Cloudy
7:55 PM 50.0 °F - 44.6 °F 82% 30.06 in 6.2 mi ESE 4.6 mph - N/A   Partly Cloudy
8:00 PM 50 °F - 46 °F 79% 30.07 in 22 mi ESE 6.7 mph - -   Partly Cloudy
8:25 PM 50.0 °F - 44.6 °F 82% 30.06 in - East 3.5 mph - N/A   Clear
8:55 PM 48.2 °F - 46.4 °F 93% 30.06 in - East 4.6 mph - N/A   Clear
9:00 PM 48 °F - 45 °F 87% 30.08 in 15 mi East 4.5 mph - -   Overcast
9:25 PM 48.2 °F - 44.6 °F 87% 30.06 in - East 5.8 mph - N/A   Clear
9:55 PM 50.0 °F - 44.6 °F 82% 30.06 in - East 5.8 mph - N/A   Clear
10:25 PM 50.0 °F - 44.6 °F 82% 30.06 in - East 6.9 mph - N/A   Clear
10:55 PM 50.0 °F - 44.6 °F 82% 30.06 in - East 9.2 mph - N/A   Clear
11:00 PM 50 °F - 45 °F 75% 30.08 in 17 mi East 8.9 mph - -   Partly Cloudy
11:55 PM 50.0 °F - 44.6 °F 82% 30.04 in - East 10.4 mph - N/A   Clear